Weather History for Big Rapids, MI

Change the Weather History Date:

Sunday, December 15, 2013

  Actual Average Record
Temperature  
Mean Temperature 15 °F -  
Max Temperature 20 °F 34 °F 53 °F (2011)
Min Temperature 10 °F 18 °F -11 °F (1989)
Degree Days  
Heating Degree Days 50    
Moisture  
Dew Point 12 °F    
Average Humidity 80    
Maximum Humidity 89    
Minimum Humidity 69    
Precipitation  
Precipitation 0.00 in - - ()
Sea Level Pressure  
Sea Level Pressure 29.83 in    
Wind  
Wind Speed 6 mph (West)    
Max Wind Speed 16 mph    
Max Gust Speed 24 mph    
Visibility 5 miles    
Events Snow    
Averages and records for this station are not official NWS values.
T = Trace of Precipitation, MM = Missing Value Source: NWS Daily Summary

Daily Weather History Graph

Daily Weather History Graph

Search for Another Location

Airport:

Trip Planner

Search our weather history database for the weather conditions in past years. The results will help you decide how hot, cold, wet, or windy it might be!

Date:

Astronomy

Dec. 15, 2013 Rise Set
Actual Time 8:08 AM EST 5:05 PM EST
Civil Twilight 7:36 AM EST 5:38 PM EST
Nautical Twilight 6:59 AM EST 6:14 PM EST
Astronomical Twilight 6:24 AM EST 6:49 PM EST
Moon 4:11 PM EST (12/15) 6:22 AM EST (12/15)
Length of Visible Light 10h 02m
Length of Day
8h 56m
Waxing Gibbous, 97% of the Moon is Illuminated
Dec 15
Waxing Gibbous
Dec 17
Full
Dec 25
Last Quarter
Jan 1
New
Jan 7
First Quarter

Hourly Weather History & Observations

Time (EST) Temp. Windchill Dew Point Humidity Pressure Visibility Wind Dir Wind Speed Gust Speed Precip Events Conditions
12:15 AM 19.2 °F 14.1 °F 15.1 °F 84% 29.84 in 10.0 mi WNW 3.5 mph - N/A Snow Light Snow
12:35 AM 19.2 °F 11.3 °F 15.1 °F 84% 29.84 in 10.0 mi WNW 5.8 mph - N/A Snow Light Snow
12:54 AM 18.9 °F 9.8 °F 14.9 °F 85% 29.83 in 7.0 mi WNW 6.9 mph - N/A Snow Light Snow
1:15 AM 18.5 °F 11.7 °F 14.9 °F 86% 29.83 in 5.0 mi WNW 4.6 mph - N/A Snow Light Snow
1:35 AM 18.5 °F 10.4 °F 14.7 °F 85% 29.82 in 5.0 mi WNW 5.8 mph - N/A Snow Light Snow
1:55 AM 18.3 °F - 14.5 °F 85% 29.81 in 7.0 mi Calm Calm - N/A Snow Light Snow
2:15 AM 18.1 °F - 14.5 °F 86% 29.81 in 7.0 mi Calm Calm - N/A Snow Light Snow
2:35 AM 18.0 °F - 14.4 °F 86% 29.81 in 7.0 mi Calm Calm - N/A Snow Light Snow
2:55 AM 17.6 °F - 14.0 °F 86% 29.81 in 7.0 mi Calm Calm - N/A Snow Light Snow
3:15 AM 17.6 °F - 14.2 °F 86% 29.80 in 7.0 mi Calm Calm - N/A Snow Light Snow
3:34 AM 17.6 °F - 14.5 °F 88% 29.80 in 5.0 mi Calm Calm - N/A Snow Light Snow
3:55 AM 17.6 °F - 14.7 °F 88% 29.79 in 4.0 mi Calm Calm - N/A Snow Light Snow
4:15 AM 17.6 °F - 14.7 °F 88% 29.78 in 3.0 mi Calm Calm - N/A Snow Light Snow
4:34 AM 18.0 °F - 14.9 °F 88% 29.77 in 3.0 mi Calm Calm - N/A Snow Light Snow
4:55 AM 18.0 °F - 14.9 °F 88% 29.77 in 5.0 mi Calm Calm - N/A Snow Light Snow
5:15 AM 18.0 °F - 14.9 °F 88% 29.76 in 4.0 mi Calm Calm - N/A Snow Light Snow
5:34 AM 18.1 °F - 15.3 °F 88% 29.76 in 3.0 mi Calm Calm - N/A Snow Light Snow
5:55 AM 18.7 °F - 15.8 °F 89% 29.75 in 3.0 mi Calm Calm - N/A Snow Light Snow
6:15 AM 19.8 °F 11.9 °F 17.1 °F 89% 29.75 in 2.5 mi West 5.8 mph - N/A Snow Light Snow
6:34 AM 20.3 °F 9.0 °F 17.2 °F 88% 29.75 in 1.8 mi West 10.4 mph - N/A Snow Light Snow
6:55 AM 20.1 °F 10.3 °F 17.1 °F 88% 29.75 in 1.5 mi West 8.1 mph - N/A Snow Light Snow
7:15 AM 20.1 °F 12.3 °F 17.2 °F 89% 29.75 in 1.2 mi West 5.8 mph - N/A Snow Light Snow
7:34 AM 20.3 °F 12.5 °F 17.4 °F 89% 29.75 in 2.5 mi West 5.8 mph - N/A Snow Light Snow
7:55 AM 20.7 °F 11.0 °F 17.6 °F 88% 29.76 in 2.5 mi West 8.1 mph - N/A Snow Light Snow
8:15 AM 20.7 °F 8.2 °F 16.5 °F 84% 29.76 in 0.5 mi West 12.7 mph 19.6 mph N/A Snow Light Snow
8:34 AM 19.8 °F 6.5 °F 15.1 °F 82% 29.76 in 1.8 mi West 13.8 mph 19.6 mph N/A Snow Light Snow
8:55 AM 19.4 °F 7.2 °F 14.9 °F 83% 29.77 in 2.0 mi West 11.5 mph 18.4 mph N/A Snow Light Snow
9:15 AM 19.4 °F 7.9 °F 14.9 °F 83% 29.77 in 0.5 mi West 10.4 mph 16.1 mph N/A Snow Light Snow
9:34 AM 19.2 °F 7.0 °F 14.9 °F 83% 29.77 in 1.5 mi West 11.5 mph 16.1 mph N/A Snow Light Snow
9:54 AM 19.2 °F 7.7 °F 14.9 °F 83% 29.77 in 1.2 mi West 10.4 mph - N/A Snow Light Snow
10:15 AM 19.4 °F 7.9 °F 14.9 °F 83% 29.77 in 0.5 mi West 10.4 mph - N/A Snow Light Snow
10:34 AM 19.4 °F 9.5 °F 14.7 °F 82% 29.78 in 1.2 mi West 8.1 mph 18.4 mph N/A Snow Light Snow
10:54 AM 19.0 °F 7.5 °F 14.2 °F 81% 29.79 in 0.5 mi West 10.4 mph 18.4 mph N/A Snow Light Snow
11:15 AM 18.7 °F 6.3 °F 11.7 °F 74% 29.78 in 2.5 mi WNW 11.5 mph 20.7 mph N/A Snow Light Snow
11:34 AM 18.1 °F 5.6 °F 12.0 °F 77% 29.78 in 2.0 mi WNW 11.5 mph 18.4 mph N/A Snow Light Snow
11:55 AM 17.6 °F 5.0 °F 10.2 °F 73% 29.78 in 2.5 mi WNW 11.5 mph 21.9 mph N/A Snow Light Snow
12:15 PM 17.6 °F 3.2 °F 9.7 °F 71% 29.78 in 2.5 mi WNW 15.0 mph 23.0 mph N/A Snow Light Snow
12:34 PM 17.4 °F 6.2 °F 9.5 °F 71% 29.78 in 4.0 mi WNW 9.2 mph 19.6 mph N/A Snow Light Snow
12:55 PM 17.2 °F 5.2 °F 10.2 °F 74% 29.78 in 3.0 mi WNW 10.4 mph 19.6 mph N/A Snow Light Snow
1:15 PM 17.2 °F 3.3 °F 8.8 °F 69% 29.78 in 5.0 mi WNW 13.8 mph 19.6 mph N/A Snow Light Snow
1:34 PM 16.7 °F 4.5 °F 8.2 °F 69% 29.78 in 7.0 mi WNW 10.4 mph 24.2 mph N/A   Overcast
1:55 PM 16.3 °F 1.0 °F 8.2 °F 70% 29.79 in 2.5 mi WNW 16.1 mph 23.0 mph N/A Snow Light Snow
2:14 PM 15.8 °F 0.9 °F 8.2 °F 72% 29.80 in 2.5 mi WNW 15.0 mph 24.2 mph N/A Snow Light Snow
2:35 PM 16.3 °F 2.7 °F 9.5 °F 74% 29.80 in 1.8 mi WNW 12.7 mph 17.3 mph N/A Snow Light Snow
2:55 PM 16.0 °F 0.6 °F 8.6 °F 73% 29.80 in 2.5 mi WNW 16.1 mph 24.2 mph N/A Snow Light Snow
3:14 PM 15.8 °F 2.7 °F 9.1 °F 75% 29.81 in 4.0 mi WNW 11.5 mph 19.6 mph N/A Snow Light Snow
3:35 PM 15.8 °F 2.7 °F 8.8 °F 74% 29.82 in 5.0 mi WNW 11.5 mph 20.7 mph N/A Snow Light Snow
3:54 PM 15.8 °F 2.1 °F 9.7 °F 77% 29.83 in 3.0 mi West 12.7 mph 18.4 mph N/A Snow Light Snow
4:15 PM 15.8 °F 6.1 °F 11.3 °F 82% 29.84 in 1.0 mi West 6.9 mph - N/A Snow Light Snow
4:35 PM 15.6 °F 0.6 °F 10.4 °F 80% 29.84 in 1.2 mi West 15.0 mph 19.6 mph N/A Snow Light Snow
4:54 PM 14.9 °F 2.3 °F 8.6 °F 76% 29.85 in 3.0 mi West 10.4 mph 21.9 mph N/A Snow Light Snow
5:15 PM 14.9 °F 2.3 °F 7.5 °F 73% 29.86 in 10.0 mi WNW 10.4 mph 19.6 mph N/A   Overcast
5:35 PM 14.9 °F 5.0 °F 8.4 °F 76% 29.87 in 5.0 mi WNW 6.9 mph - N/A Snow Light Snow
5:54 PM 14.7 °F 3.8 °F 9.3 °F 79% 29.87 in 2.5 mi WNW 8.1 mph - N/A Snow Light Snow
6:15 PM 14.7 °F 2.1 °F 8.2 °F 75% 29.88 in 10.0 mi WNW 10.4 mph 16.1 mph N/A Snow Light Snow
6:35 PM 14.5 °F 1.9 °F 7.2 °F 73% 29.88 in 10.0 mi WNW 10.4 mph 19.6 mph N/A   Overcast
6:54 PM 14.2 °F 1.4 °F 5.5 °F 69% 29.89 in 10.0 mi WNW 10.4 mph 18.4 mph N/A   Overcast
7:15 PM 14.0 °F 1.2 °F 6.8 °F 73% 29.90 in 10.0 mi West 10.4 mph - N/A   Overcast
7:35 PM 14.0 °F 1.2 °F 6.8 °F 73% 29.90 in 7.0 mi WNW 10.4 mph - N/A Snow Light Snow
7:54 PM 14.0 °F 3.9 °F 7.5 °F 75% 29.91 in 7.0 mi West 6.9 mph - N/A Snow Light Snow
8:15 PM 13.8 °F -0.5 °F 7.7 °F 77% 29.91 in 10.0 mi West 12.7 mph - N/A   Overcast
8:35 PM 13.1 °F -1.4 °F 7.7 °F 79% 29.91 in 7.0 mi West 12.7 mph - N/A   Overcast
8:54 PM 13.5 °F -0.9 °F 7.7 °F 78% 29.92 in 10.0 mi West 12.7 mph 17.3 mph N/A   Overcast
9:15 PM 13.6 °F -1.3 °F 7.7 °F 77% 29.93 in 10.0 mi West 13.8 mph - N/A   Overcast
9:35 PM 13.8 °F -0.5 °F 7.7 °F 77% 29.93 in 10.0 mi West 12.7 mph - N/A   Overcast
9:54 PM 14.0 °F 2.9 °F 8.1 °F 77% 29.94 in 10.0 mi West 8.1 mph - N/A   Overcast
10:15 PM 14.0 °F 2.0 °F 8.2 °F 78% 29.94 in 10.0 mi West 9.2 mph - N/A   Overcast
10:35 PM 13.6 °F 0.0 °F 7.7 °F 77% 29.94 in 10.0 mi WSW 11.5 mph - N/A   Overcast
10:54 PM 12.6 °F 1.1 °F 7.2 °F 79% 29.94 in 10.0 mi West 8.1 mph - N/A   Scattered Clouds
11:15 PM 11.7 °F 2.3 °F 6.6 °F 80% 29.94 in 10.0 mi West 5.8 mph - N/A   Clear
11:35 PM 10.8 °F - 6.1 °F 81% 29.95 in 10.0 mi Calm Calm - N/A   Clear
11:54 PM 10.0 °F 1.8 °F 5.9 °F 83% 29.95 in 10.0 mi West 4.6 mph - N/A Snow Light Snow